Location: Poughquag
(41.6090°N, 73.6820°W)
Time: 01:10:28
(UTC-04:00)

Tiangong 1 - Visible Passes

Search period start: 25 June 2017 00:00
Search period end: 05 July 2017 00:00
Orbit: 321 x 344 km, 42.8° (Epoch: 24 June)

Date Brightness Start Highest point End Pass type
(mag) Time Alt. Az. Time Alt. Az. Time Alt. Az.
25 Jun 0.8 21:17:02 10° W 21:19:51 84° N 21:22:38 10° ENE visible
25 Jun 1.2 22:52:44 10° W 22:55:09 60° NW 22:55:09 60° NW visible
26 Jun 1.1 21:36:27 10° W 21:39:14 66° N 21:42:01 10° E visible
26 Jun 2.7 23:12:06 10° W 23:13:24 24° W 23:13:24 24° W visible
27 Jun 0.9 21:55:49 10° W 21:58:36 71° N 22:00:25 19° E visible
27 Jun 3.9 23:31:29 10° W 23:31:33 10° W 23:31:33 10° W visible
28 Jun 0.6 22:15:05 10° W 22:17:53 77° SSW 22:18:30 49° ESE visible
29 Jun 1.8 22:34:23 10° W 22:36:32 34° SW 22:36:32 34° SW visible
30 Jun 0.7 21:17:54 10° W 21:20:44 78° SSW 21:23:24 11° ESE visible
30 Jun 3.4 22:54:00 10° WSW 22:54:32 13° WSW 22:54:32 13° WSW visible
01 Jul 1.5 21:37:07 10° W 21:39:47 39° SSW 21:41:23 19° SE visible
02 Jul 2.6 21:56:37 10° WSW 21:58:40 18° SSW 21:59:21 17° S visible
